Wind_Speed
20 14 6 14 16 14 18 21 24 21 18 16 17 21 16 27 26 25 27 24 24 30 18 15 14 15 14 12 10 9 11 15 19 24 26 24 22 20 18 18 18 17 19 20
22 17 12 13 29 15 19 17 3 11 4 8 13 12 16 21 26 25 23 24 29 26 21 16 16 17 17 16 14 12 14 17 21 25 28 27 25 23 21 19 18 18 19 20
21 17 20 25 23 15 18 14 6 11 5 14 12 14 10 15 21 21 22 24 27 26 20 19 19 20 20 19 18 16 17 19 22 26 28 29 26 25 24 22 21 20 19 19
23 21 18 21 17 12 12 12 9 6 12 10 11 17 10 16 19 20 23 28 29 25 20 22 21 23 21 20 20 19 21 22 25 28 30 30 26 25 25 25 24 23 22 22
24 21 19 18 6 3 10 19 7 3 11 13 10 14 13 14 20 24 25 27 26 17 22 23 27 23 20 21 21 20 24 25 28 30 33 32 28 25 24 24 24 25 25 26
13 19 13 3 3 3 2 2 6 4 2 14 11 17 18 22 25 24 22 26 24 27 32 27 19 19 19 19 19 23 26 28 30 32 32 31 29 27 26 26 25 25 25 25
15 9 4 5 14 15 12 6 5 8 4 5 7 10 15 20 23 26 27 26 30 31 27 22 17 18 18 20 22 24 27 30 32 30 28 27 27 26 26 26 26 27 27 26
21 13 4 22 19 13 14 20 14 10 3 9 1 10 22 26 26 20 21 20 15 20 19 18 16 16 19 21 23 26 28 29 28 27 26 25 24 24 24 25 25 26 27 26
8 2 10 3 14 29 10 16 14 4 5 8 10 9 13 18 20 20 15 13 13 11 11 13 13 15 20 22 26 28 28 26 25 24 24 24 23 23 22 23 24 24 24 24
5 5 11 8 10 3 7 15 13 7 9 15 13 11 13 14 16 15 13 12 12 12 12 14 15 19 22 24 26 26 25 24 23 23 23 23 23 24 24 25 25 25 24 23
1 7 10 8 8 8 10 11 8 14 14 11 13 15 14 15 18 17 14 13 13 12 14 16 19 22 26 26 25 23 22 22 21 21 20 21 21 21 21 22 22 21 22 22
4 11 12 7 1 4 6 7 7 9 8 15 16 16 18 19 20 19 16 14 13 14 16 19 22 23 24 23 22 21 21 21 20 20 19 18 18 18 19 19 20 20 20 19
20 18 15 11 14 11 14 9 8 10 14 13 14 17 19 18 18 17 16 16 14 15 18 20 23 23 23 22 21 21 21 20 20 18 18 19 19 19 19 20 22 20 20 20
20 24 25 26 26 21 8 12 14 12 19 20 21 20 22 21 19 19 17 16 16 17 19 22 23 23 23 22 21 20 21 20 19 19 19 19 19 20 21 21 21 22 21 21
21 22 25 26 24 24 17 13 20 20 25 25 21 25 24 17 19 18 17 18 19 19 21 22 22 22 21 20 20 20 18 19 18 19 19 19 20 19 20 21 21 21 21 21
26 26 24 25 9 13 17 16 22 22 25 19 22 24 20 18 19 20 21 20 20 19 20 20 20 20 19 18 17 17 18 16 16 16 18 19 19 19 19 20 21 20 19 20
21 21 23 25 28 27 20 22 22 25 29 29 27 28 21 19 21 23 22 21 22 20 18 18 20 19 18 17 16 16 16 16 16 16 17 17 18 17 18 19 17 18 19 16
15 15 16 18 22 24 23 24 26 28 27 34 29 29 24 21 20 21 21 19 17 17 17 16 17 17 16 15 14 14 14 13 15 16 16 15 15 14 15 14 14 15 16 16
10 10 11 15 19 20 20 27 29 31 33 35 34 28 23 21 22 19 18 17 16 17 17 15 13 13 12 12 11 12 14 14 15 15 14 12 13 11 13 13 12 13 14 15
8 9 11 15 13 17 22 26 30 31 33 28 19 24 22 25 22 19 17 11 9 14 14 11 8 10 11 8 7 8 9 18 14 15 13 11 11 11 12 14 13 14 14 15
8 10 13 15 18 14 16 21 29 27 27 36 34 24 31 27 29 25 24 8 11 13 12 11 11 10 13 13 11 8 5 14 22 18 16 15 13 12 13 13 14 14 14 15
13 15 13 13 15 19 15 11 13 17 30 30 35 34 32 27 21 20 18 14 14 12 11 13 13 13 14 9 18 16 8 10 20 17 15 15 16 15 17 14 13 14 14 14
12 13 13 12 13 15 18 9 7 15 20 21 31 29 32 19 16 15 18 14 16 16 14 15 17 16 13 18 19 18 15 15 13 16 20 18 15 9 13 22 17 14 14 15
12 11 10 11 12 13 10 11 14 13 6 1 17 33 14 11 5 6 9 16 18 11 15 19 20 18 21 23 23 19 17 13 17 18 14 9 18 18 15 18 18 21 18 18
8 9 9 10 10 9 8 7 6 6 6 5 2 6 9 8 12 19 15 12 11 14 21 21 20 21 20 17 18 13 10 8 16 13 14 12 18 21 25 26 17 23 23 21
7 5 12 11 8 5 5 2 2 6 4 3 4 9 6 11 6 12 17 14 11 10 8 4 15 16 21 12 6 10 8 10 11 18 16 16 19 18 24 26 22 29 29 28
9 6 8 8 6 5 3 5 9 7 5 9 4 1 3 5 6 6 8 8 8 8 13 7 16 18 12 2 9 14 12 18 13 17 17 15 15 26 28 26 24 24 28 26
Wind_Direction
240 199 294 311 274 285 240 258 268 146 167 185 215 271 212 176 186 189 186 196 196 213 223 230 236 227 238 238 264 303 329 338 338 338 339 332 323 315 304 295 288 279 273 271
251 264 250 222 229 255 269 274 205 195 131 292 244 223 204 178 191 194 198 203 217 228 233 239 227 230 236 241 263 283 305 322 327 332 334 332 323 316 309 301 291 284 281 277
250 247 252 259 243 249 266 310 81 124 309 5 279 222 182 167 212 206 207 208 221 235 228 228 223 236 239 247 261 276 293 314 322 324 328 328 319 312 307 303 299 296 291 285
241 243 243 246 260 243 265 282 16 18 28 49 91 152 199 207 221 211 215 211 224 231 225 226 228 233 242 254 268 275 289 305 314 318 323 323 315 308 304 301 298 295 291 288
236 243 249 249 342 5 307 268 253 71 121 96 145 147 179 188 216 213 222 227 225 206 222 226 232 239 243 257 267 278 293 303 311 316 319 317 312 307 303 300 296 293 292 290
224 241 271 21 214 241 322 115 52 124 172 159 127 179 219 188 199 214 222 234 225 200 228 240 239 239 254 268 278 289 296 306 311 316 316 312 310 308 305 303 302 298 296 295
243 259 264 326 244 250 305 284 93 81 109 184 189 197 178 186 192 203 226 244 245 233 237 243 235 250 262 274 283 295 303 306 311 312 308 306 305 304 304 304 302 300 298 295
254 291 325 298 278 203 268 274 276 293 294 198 268 180 181 191 211 231 253 259 263 250 249 244 246 256 272 284 294 298 301 305 306 306 305 304 304 304 304 302 299 297 295 295
299 159 334 287 223 215 301 359 281 258 258 228 259 265 211 223 237 253 267 252 237 240 246 249 261 275 286 296 299 302 304 306 305 305 305 305 305 305 305 302 302 301 298 293
333 256 28 332 242 329 349 273 288 284 243 251 261 262 259 247 241 243 244 243 244 256 260 271 284 289 296 300 302 302 301 300 301 302 304 306 308 308 308 307 307 306 305 304
188 75 94 100 152 230 207 262 256 262 221 222 236 259 252 251 244 242 249 249 253 255 269 287 295 301 301 299 298 298 298 299 300 303 305 307 308 311 313 313 314 315 313 313
224 234 208 220 119 358 227 222 229 220 211 200 238 257 251 243 235 242 249 251 258 273 286 295 298 299 299 298 296 296 296 296 297 299 300 301 305 309 312 316 319 323 324 323
245 253 254 275 281 303 301 287 242 221 205 237 222 258 272 266 252 249 245 252 262 276 288 295 298 300 299 298 297 297 296 296 295 294 296 299 302 306 309 313 313 317 318 319
243 255 258 261 269 260 272 281 245 225 224 250 269 259 260 261 250 246 247 256 267 279 292 298 301 302 299 298 295 294 293 292 294 295 295 297 300 304 307 309 310 314 315 314
267 269 271 276 282 275 247 264 254 238 233 249 245 245 255 257 246 249 253 262 273 286 296 298 299 296 294 293 291 290 288 292 291 293 295 297 299 304 306 307 306 306 308 311
280 275 273 266 267 257 237 224 244 237 241 224 223 241 252 249 253 251 259 269 276 284 286 291 294 293 291 291 291 293 292 289 288 289 293 297 301 305 305 305 306 307 306 307
290 284 272 262 249 249 255 220 232 240 248 236 221 254 250 249 255 262 267 273 278 279 282 288 290 291 293 293 291 292 290 297 297 299 299 302 303 304 303 306 308 308 310 313
305 295 283 276 271 265 249 229 225 235 245 227 224 236 259 252 259 268 270 268 267 268 273 285 286 288 291 293 295 298 296 298 298 299 303 304 303 304 302 309 310 312 317 323
334 326 309 300 273 269 246 233 231 241 251 224 231 222 247 250 254 252 251 251 257 270 279 280 282 287 293 294 306 314 302 307 305 304 306 302 301 304 303 308 309 312 320 324
332 350 351 344 321 273 255 239 239 243 242 237 214 211 244 253 237 236 239 233 260 264 274 274 285 301 312 313 309 318 299 309 316 312 309 301 303 303 305 306 308 311 315 319
328 337 346 348 358 334 270 258 249 243 241 248 218 230 241 223 248 250 253 224 244 259 253 279 287 298 309 312 331 337 316 296 306 318 318 312 306 305 306 309 310 311 311 314
331 333 334 341 350 355 347 283 256 250 235 235 227 226 234 230 237 251 211 221 238 250 277 300 285 282 304 292 307 303 274 270 273 295 296 309 317 324 318 314 314 313 314 316
298 308 316 326 338 351 9 13 318 264 245 229 231 229 239 237 224 231 214 212 223 260 266 292 286 294 297 286 290 293 280 266 296 274 279 288 305 297 301 315 317 316 321 322
293 297 309 322 329 339 348 355 23 7 350 23 235 233 224 227 233 227 228 231 208 258 277 286 289 290 297 296 290 286 275 259 270 279 323 326 318 316 288 296 316 309 321 319
274 302 296 307 321 329 336 343 358 345 339 3 346 220 204 226 245 230 272 218 240 284 296 300 294 297 303 299 283 265 308 289 301 322 327 292 314 328 323 323 312 306 326 327
278 281 303 307 305 309 313 325 355 0 355 333 278 267 277 275 292 312 267 307 329 305 316 318 298 300 312 319 348 328 312 296 307 291 292 315 309 308 301 305 299 293 319 321
310 307 286 303 285 261 219 313 341 351 349 344 25 301 312 288 280 303 347 6 345 334 299 277 275 290 306 1 294 315 308 296 287 309 300 307 286 296 296 300 285 288 299 311
Height
3128 3131 3133 3127 3128 3129 3130 3131 3130 3131 3136 3136 3146 3136 3138 3147 3159 3161 3165 3168 3172 3167 3170 3173 3175 3176 3177 3178 3179 3179 3178 3177 3177 3175 3172 3169 3167 3167 3166 3165 3165 3165 3166 3165
3124 3124 3125 3130 3127 3129 3128 3127 3123 3124 3127 3130 3135 3145 3138 3130 3159 3155 3161 3164 3164 3166 3168 3170 3172 3174 3175 3176 3177 3177 3177 3175 3174 3171 3168 3166 3163 3161 3160 3160 3160 3160 3160 3159
3120 3123 3123 3122 3123 3126 3126 3127 3119 3124 3132 3128 3126 3131 3145 3145 3148 3152 3159 3161 3160 3161 3165 3166 3169 3170 3171 3172 3173 3173 3173 3172 3170 3168 3165 3163 3160 3158 3156 3154 3153 3153 3153 3153
3119 3119 3118 3120 3120 3121 3124 3127 3123 3123 3127 3131 3126 3137 3138 3144 3151 3154 3157 3160 3157 3159 3161 3162 3165 3165 3168 3169 3170 3169 3169 3168 3166 3164 3162 3159 3156 3153 3151 3149 3147 3146 3146 3145
3114 3114 3114 3116 3115 3116 3122 3126 3128 3124 3128 3133 3132 3130 3130 3143 3151 3152 3153 3157 3156 3158 3157 3157 3157 3162 3165 3165 3165 3165 3164 3162 3160 3158 3155 3153 3150 3148 3146 3144 3142 3140 3139 3137
3110 3112 3111 3116 3117 3118 3121 3128 3127 3130 3130 3131 3123 3137 3139 3144 3147 3146 3145 3151 3153 3153 3150 3151 3156 3158 3159 3159 3160 3159 3158 3156 3154 3151 3148 3145 3143 3140 3138 3136 3135 3133 3132 3130
3109 3109 3110 3113 3120 3117 3125 3136 3131 3128 3132 3135 3135 3137 3141 3143 3143 3141 3143 3145 3144 3146 3148 3149 3152 3153 3154 3154 3154 3153 3152 3150 3147 3144 3142 3139 3137 3134 3132 3130 3127 3125 3124 3123
3112 3109 3110 3107 3116 3123 3132 3134 3131 3129 3129 3129 3132 3134 3136 3135 3137 3139 3140 3140 3140 3143 3143 3146 3148 3149 3149 3149 3148 3147 3146 3143 3140 3138 3136 3134 3131 3129 3127 3124 3122 3120 3118 3117
3116 3114 3113 3112 3120 3120 3118 3124 3129 3126 3126 3126 3130 3130 3130 3131 3134 3135 3135 3136 3136 3137 3138 3140 3143 3144 3143 3143 3141 3139 3136 3134 3132 3130 3129 3127 3125 3123 3121 3118 3116 3114 3112 3110
3115 3115 3114 3114 3117 3118 3120 3127 3126 3125 3126 3127 3125 3125 3126 3125 3127 3129 3130 3130 3131 3133 3134 3136 3138 3138 3137 3136 3134 3132 3130 3129 3127 3125 3123 3121 3118 3116 3113 3111 3109 3106 3104 3102
3116 3111 3113 3116 3116 3119 3122 3122 3124 3123 3124 3124 3121 3120 3120 3120 3122 3123 3124 3125 3127 3129 3130 3130 3131 3131 3130 3129 3127 3126 3124 3123 3121 3120 3118 3116 3114 3111 3109 3105 3103 3101 3098 3096
3109 3108 3110 3111 3113 3117 3118 3120 3121 3120 3120 3120 3116 3115 3114 3115 3117 3118 3120 3122 3123 3124 3125 3126 3126 3126 3124 3123 3122 3121 3119 3118 3117 3115 3114 3111 3110 3107 3105 3102 3099 3096 3094 3091
3105 3105 3106 3108 3110 3112 3114 3115 3117 3117 3116 3113 3112 3110 3109 3111 3114 3116 3117 3118 3119 3120 3120 3120 3119 3119 3118 3117 3116 3116 3114 3113 3111 3110 3108 3107 3105 3103 3100 3097 3093 3092 3089 3086
3099 3100 3103 3104 3105 3108 3110 3109 3109 3111 3107 3106 3106 3105 3104 3108 3110 3110 3112 3113 3114 3115 3115 3114 3113 3113 3112 3112 3111 3110 3108 3107 3105 3104 3103 3101 3099 3097 3095 3093 3090 3086 3083 3081
3095 3096 3097 3098 3098 3099 3101 3104 3102 3102 3098 3099 3098 3098 3100 3104 3105 3106 3107 3108 3108 3109 3108 3109 3108 3107 3107 3106 3106 3104 3103 3102 3101 3099 3097 3096 3094 3092 3090 3087 3084 3082 3079 3076
3088 3088 3089 3090 3092 3091 3091 3093 3093 3094 3092 3094 3094 3094 3096 3098 3100 3101 3102 3102 3102 3103 3103 3103 3102 3102 3102 3101 3100 3098 3097 3097 3096 3094 3092 3090 3088 3086 3084 3082 3079 3076 3074 3071
3080 3079 3079 3080 3080 3081 3083 3087 3088 3087 3089 3087 3088 3088 3092 3093 3095 3096 3096 3096 3097 3097 3097 3097 3098 3098 3097 3096 3095 3093 3092 3091 3089 3088 3086 3085 3083 3081 3079 3076 3074 3071 3069 3067
3076 3074 3073 3072 3071 3072 3077 3079 3081 3081 3081 3079 3078 3081 3085 3088 3089 3090 3091 3092 3092 3092 3092 3094 3093 3093 3092 3091 3090 3089 3087 3086 3084 3083 3081 3080 3078 3076 3074 3072 3069 3067 3064 3062
3074 3072 3070 3068 3067 3067 3069 3072 3074 3075 3073 3073 3068 3073 3079 3081 3084 3086 3086 3088 3088 3087 3087 3089 3089 3089 3089 3087 3086 3085 3083 3082 3081 3079 3077 3076 3073 3072 3070 3068 3066 3063 3060 3058
3073 3071 3069 3066 3064 3062 3063 3064 3066 3069 3071 3071 3064 3070 3072 3076 3078 3081 3082 3083 3084 3084 3085 3085 3085 3085 3084 3084 3084 3083 3081 3078 3077 3075 3073 3072 3070 3068 3066 3064 3062 3060 3057 3055
3071 3069 3067 3064 3062 3059 3057 3058 3059 3061 3063 3064 3066 3061 3067 3070 3072 3075 3077 3076 3080 3081 3081 3082 3082 3082 3081 3080 3079 3079 3081 3078 3073 3072 3070 3068 3066 3064 3062 3060 3058 3056 3054 3052
3069 3067 3065 3064 3061 3058 3053 3050 3051 3053 3056 3057 3056 3058 3061 3064 3066 3068 3071 3075 3077 3078 3079 3079 3079 3078 3078 3077 3076 3076 3076 3076 3071 3070 3068 3065 3063 3061 3059 3057 3055 3052 3050 3047
3067 3066 3064 3062 3061 3058 3055 3050 3049 3049 3048 3050 3051 3053 3057 3057 3062 3063 3065 3070 3073 3074 3075 3075 3074 3074 3073 3073 3071 3070 3070 3069 3066 3065 3064 3062 3060 3059 3057 3053 3051 3048 3046 3043
3064 3063 3062 3061 3059 3057 3055 3053 3050 3050 3048 3047 3046 3051 3053 3056 3058 3060 3061 3060 3064 3069 3071 3071 3070 3069 3068 3066 3063 3063 3063 3063 3062 3060 3058 3057 3056 3055 3054 3050 3047 3044 3042 3039
3062 3061 3060 3059 3058 3057 3055 3054 3052 3052 3051 3051 3051 3051 3052 3053 3055 3056 3059 3055 3062 3065 3066 3065 3064 3063 3061 3059 3057 3058 3058 3058 3057 3056 3055 3054 3053 3050 3048 3046 3043 3039 3038 3035
3059 3058 3057 3057 3056 3055 3055 3054 3052 3052 3052 3051 3051 3049 3050 3051 3047 3053 3058 3056 3055 3058 3058 3058 3057 3058 3057 3053 3053 3055 3056 3056 3055 3053 3051 3050 3049 3046 3044 3042 3040 3035 3033 3030
3057 3057 3056 3056 3054 3054 3054 3055 3052 3052 3052 3052 3052 3052 3053 3053 3055 3055 3055 3055 3056 3057 3058 3056 3054 3055 3054 3051 3052 3052 3051 3051 3049 3050 3048 3047 3045 3043 3039 3036 3033 3032 3028 3025